Flag for Fiji Weather past 2 weeks in Lautoka, Fiji

Now
75 °F

Passing clouds.


Feels Like: 75 °F
Forecast: 77 / 87 °F
Wind: 2 mph from Southeast

Location: Nandi

Current Time: Mar 28, 2015 at 3:42:44 AM

Latest Report: Mar 28, 2015 at 3:00 AM


Visibility: N/A

Pressure: 29.83 "Hg

Humidity: 83%

Dew point: 70 °F

Location of LautokaLocation

Historic Weather in Lautoka — Graph

°F

Lautoka temperature yesterday

Maximum temperature yesterday: 88 °F (at 11:00 AM)
Minimum temperature yesterday: 72 °F (at 4:00 AM)
Average temperature yesterday: 79 °F

Past Weeks' High & Low Weather Summary

 TemperatureHumidityPressure
High90 °F (Mar 13, 1:00 PM)100% (Mar 15, 1:00 AM)29.92 "Hg (Mar 15, 1:00 AM)
Low68 °F (Mar 25, 3:00 AM)55% (Mar 24, 1:00 PM)29.50 "Hg (Mar 13, 5:00 AM)
Average80 °F82%29.75 "Hg
* Reported Mar 13 2:00 AM — Mar 28 2:00 AM, Lautoka, Weather by CustomWeather, © 2015

Note: Actual official high and low records may vary slightly from our data, if they occured in-between our weather recording intervals... More about our weather records

Advertising

Lautoka weather history for previous 24 hours

 ConditionsComfort  
Time TempWeatherWind HumidityBarometerVisibility
2:00 AM
Sat, Mar 28
75 °FPassing clouds.7 mph83%29.86 "HgN/A
1:00 AM75 °FPassing clouds.3 mph89%29.86 "HgN/A
12:00 AM75 °FPassing clouds.6 mph89%29.89 "HgN/A
11:00 PM
Fri, Mar 27
75 °FPassing clouds.7 mph89%29.89 "HgN/A
10:00 PM77 °FPassing clouds.6 mph83%29.92 "HgN/A
9:00 PM79 °FPassing clouds.7 mph79%29.89 "HgN/A
8:00 PM77 °FPassing clouds.6 mph83%29.86 "HgN/A
7:00 PM81 °FPassing clouds.5 mph74%29.86 "HgN/A
6:00 PM82 °FScattered clouds.7 mph70%29.83 "HgN/A
5:00 PM82 °FScattered clouds.9 mph70%29.83 "HgN/A
4:00 PM81 °FSprinkles. Scattered clouds.10 mph79%29.83 "HgN/A
3:00 PM81 °FScattered clouds.5 mph84%29.83 "HgN/A
2:00 PM84 °FSprinkles. Scattered clouds.6 mph74%29.83 "HgN/A
1:00 PM88 °FScattered clouds.6 mph62%29.83 "HgN/A
12:00 PM86 °FScattered clouds.7 mph62%29.86 "HgN/A
11:00 AM88 °FPassing clouds.6 mph62%29.89 "HgN/A
10:00 AM86 °FPassing clouds.13 mph66%29.89 "HgN/A
9:00 AM82 °FPassing clouds.8 mph70%29.89 "HgN/A
8:00 AM79 °FPassing clouds.6 mph79%29.89 "HgN/A
7:00 AM72 °FPassing clouds.3 mph94%29.89 "HgN/A
6:00 AM72 °FPassing clouds.3 mph94%29.86 "HgN/A
5:00 AM72 °FPassing clouds.3 mph100%29.86 "HgN/A
4:00 AM72 °FPassing clouds.3 mph100%29.83 "HgN/A
3:00 AM73 °FPassing clouds.3 mph94%29.86 "HgN/A
Weather by CustomWeather, © 2015

See weather overviewHow to use our weather pages